Mobridge, SD

5:08 AM CDT on March 25, 2017 (GMT -0500)
Mobridge Municipal

Weather History for KMBG - March, 2014

Change the Weather History Date:

Friday, March 7, 2014

  Actual Average Record
Temperature  
Mean Temperature 24 °F 28 °F  
Max Temperature 32 °F 38 °F 64 °F (1968)
Min Temperature 15 °F 18 °F -17 °F (1995)
Degree Days  
Heating Degree Days 41 37  
Month to date heating degree days 377 269  
Since 1 July heating degree days 6917 6244  
Cooling Degree Days 0 0  
Month to date cooling degree days 0 0  
Year to date cooling degree days 0 0  
Moisture  
Dew Point 12 °F    
Average Humidity 71    
Maximum Humidity 85    
Minimum Humidity 57    
Precipitation  
Precipitation 0.01 in 0.02 in 0.39 in (2000)
Month to date precipitation 0.14 0.16  
Year to date precipitation 0.75 0.89  
Snow  
Snow 0.00 in - - ()
Month to date snowfall 2.8  
Since 1 July snowfall 34.2  
Snow Depth T in    
Sea Level Pressure  
Sea Level Pressure 30.13 in    
Wind  
Wind Speed 15 mph (North)    
Max Wind Speed 32 mph    
Max Gust Speed 42 mph    
Visibility 10 miles    
Events      
T = Trace of Precipitation, MM = Missing Value Source: NWS Daily Summary

Daily Weather History Graph

Daily Weather History Graph

Search for Another Location

Airport or City:

Trip Planner

Search our weather history database for the weather conditions in past years. The results will help you decide how hot, cold, wet, or windy it might be!

Date:

Astronomy

Mar. 07, 2014 Rise Set
Actual Time 7:09 AM CST 6:36 PM CST
Civil Twilight 6:39 AM CST 7:06 PM CST
Nautical Twilight 6:05 AM CST 7:40 PM CST
Astronomical Twilight 5:30 AM CST 8:15 PM CST
Moon 10:45 AM CST (3/7) 1:01 AM CST (3/7)
Length of Visible Light 12h 27m
Length of Day
11h 27m
Waxing Crescent, 42% of the Moon is Illuminated
Mar 7
Waxing Crescent
Mar 8
First Quarter
Mar 16
Full
Mar 23
Last Quarter
Mar 30
New

Hourly Weather History & Observations

Time (CST) Temp. Windchill Dew Point Humidity Pressure Visibility Wind Dir Wind Speed Gust Speed Precip Events Conditions
12:52 AM 28.9 °F 14.8 °F 25.0 °F 85% 29.84 in 8.0 mi NNW 24.2 mph 31.1 mph 0.01 in   Overcast
1:36 AM 27.0 °F 11.9 °F 21.9 °F 81% 29.80 in 10.0 mi NNW 25.3 mph 38.0 mph N/A   Overcast
1:52 AM 26.1 °F 10.7 °F 21.0 °F 81% 29.87 in 9.0 mi North 25.3 mph 32.2 mph N/A   Overcast
2:52 AM 23.0 °F 5.7 °F 18.0 °F 81% 29.91 in 10.0 mi NNW 28.8 mph 40.3 mph N/A   Scattered Clouds
3:13 AM 23.0 °F 7.6 °F 18.0 °F 81% 29.87 in 9.0 mi North 21.9 mph 33.4 mph N/A   Mostly Cloudy
3:52 AM 21.9 °F 7.3 °F 16.0 °F 78% 29.97 in 10.0 mi NNW 18.4 mph 28.8 mph N/A   Scattered Clouds
4:25 AM 21.9 °F 5.5 °F 16.0 °F 78% 29.92 in 9.0 mi NNW 24.2 mph 32.2 mph N/A   Overcast
4:52 AM 21.0 °F 7.1 °F 15.1 °F 78% 30.00 in 9.0 mi NNW 16.1 mph 27.6 mph N/A   Overcast
5:06 AM 19.9 °F 4.8 °F 12.9 °F 74% 29.95 in 8.0 mi North 18.4 mph 27.6 mph N/A   Overcast
5:52 AM 19.0 °F 5.0 °F 12.9 °F 77% 30.04 in 8.0 mi NNW 15.0 mph - N/A   Overcast
6:52 AM 18.0 °F 3.6 °F 12.0 °F 78% 30.09 in 10.0 mi NNW 15.0 mph - N/A   Overcast
7:52 AM 15.1 °F -2.5 °F 9.0 °F 77% 30.12 in 10.0 mi North 20.7 mph 29.9 mph N/A   Mostly Cloudy
8:52 AM 16.0 °F -1.3 °F 9.0 °F 74% 30.15 in 10.0 mi North 20.7 mph - N/A   Clear
9:52 AM 18.0 °F 3.6 °F 9.0 °F 68% 30.18 in 10.0 mi NNW 15.0 mph - N/A   Clear
10:29 AM 19.0 °F 5.6 °F 10.0 °F 68% 30.13 in 10.0 mi North 13.8 mph - N/A   Mostly Cloudy
10:52 AM 19.0 °F 4.0 °F 10.0 °F 68% 30.20 in 10.0 mi North 17.3 mph - N/A   Overcast
11:44 AM 19.9 °F 5.2 °F 10.0 °F 65% 30.14 in 10.0 mi North 17.3 mph - N/A   Scattered Clouds
11:52 AM 19.9 °F 6.2 °F 10.0 °F 65% 30.22 in 10.0 mi North 15.0 mph - N/A   Scattered Clouds
12:09 PM 21.0 °F 8.6 °F 10.0 °F 63% 30.15 in 10.0 mi North 12.7 mph - N/A   Mostly Cloudy
12:52 PM 21.9 °F 8.2 °F 10.0 °F 60% 30.23 in 10.0 mi North 16.1 mph - N/A   Partly Cloudy
1:25 PM 21.9 °F 8.2 °F 10.0 °F 60% 30.15 in 10.0 mi North 16.1 mph 23.0 mph N/A   Mostly Cloudy
1:47 PM 21.2 °F 6.8 °F 10.4 °F 63% 30.15 in 10.0 mi North 17.3 mph 24.2 mph N/A   Scattered Clouds
1:52 PM 21.9 °F 8.7 °F 9.0 °F 58% 30.22 in 10.0 mi North 15.0 mph - N/A   Scattered Clouds
2:44 PM 23.0 °F 10.1 °F 10.0 °F 58% 30.15 in 10.0 mi North 15.0 mph - N/A   Mostly Cloudy
2:52 PM 21.9 °F 10.4 °F 10.0 °F 60% 30.24 in 10.0 mi North 11.5 mph - N/A   Scattered Clouds
3:06 PM 21.9 °F 9.2 °F 10.0 °F 60% 30.15 in 10.0 mi NNW 13.8 mph - N/A   Mostly Cloudy
3:24 PM 23.0 °F 11.7 °F 10.0 °F 58% 30.16 in 10.0 mi North 11.5 mph - N/A   Scattered Clouds
3:52 PM 23.0 °F 11.1 °F 10.0 °F 58% 30.25 in 10.0 mi North 12.7 mph - N/A   Partly Cloudy
4:52 PM 21.9 °F 9.8 °F 10.0 °F 60% 30.26 in 10.0 mi North 12.7 mph - N/A   Clear
5:52 PM 21.0 °F 9.9 °F 10.9 °F 65% 30.28 in 10.0 mi NNE 10.4 mph - N/A   Clear
6:52 PM 18.0 °F 7.7 °F 10.0 °F 71% 30.31 in 10.0 mi NNE 8.1 mph - N/A   Clear
7:52 PM 16.0 °F 7.4 °F 10.0 °F 77% 30.33 in 10.0 mi NE 5.8 mph - N/A   Clear
8:52 PM 15.1 °F 5.2 °F 10.0 °F 80% 30.34 in 10.0 mi NE 6.9 mph - N/A   Clear
9:52 PM 16.0 °F 5.3 °F 10.0 °F 77% 30.35 in 10.0 mi NE 8.1 mph - N/A   Overcast
10:52 PM 16.0 °F 8.8 °F 10.0 °F 77% 30.35 in 10.0 mi ENE 4.6 mph - N/A   Overcast
11:52 PM 16.0 °F 7.4 °F 9.0 °F 74% 30.35 in 10.0 mi ENE 5.8 mph - N/A   Overcast